Harrisburg, IL

2:04 AM CST on December 14, 2019 (GMT -0600)
Harrisburg-Raleigh

Weather History for KHSB - October, 2019

Change the Weather History Date:

Tuesday, October 22, 2019

  Actual Average (KMWA) Record (KMWA)
Temperature  
Mean Temperature 51 °F -  
Max Temperature 62 °F 66 °F 86 °F (1979)
Min Temperature 40 °F 42 °F 27 °F (1976)
Degree Days  
Heating Degree Days 14    
Growing Degree Days 1 (Base 50)    
Moisture  
Dew Point 33 °F    
Average Humidity 53    
Maximum Humidity 79    
Minimum Humidity 20    
Precipitation  
Precipitation 0.00 in - - ()
Sea Level Pressure  
Sea Level Pressure 29.91 in    
Wind  
Wind Speed 8 mph ()    
Max Wind Speed 21 mph    
Max Gust Speed 26 mph    
Visibility 10.0 miles    
Events      
Averages and records for this station are not official NWS values.
T = Trace of Precipitation, MM = Missing Value Source: Averaged Metar Reports

Daily Weather History Graph

Daily Weather History Graph

Search for Another Location

Airport or City:

Astronomy

Oct. 22, 2019 Rise Set
Actual Time 7:09 AM CDT 6:07 PM CDT
Civil Twilight 6:42 AM CDT 6:34 PM CDT
Nautical Twilight 6:11 AM CDT 7:04 PM CDT
Astronomical Twilight 5:41 AM CDT 7:35 PM CDT
Moon 12:27 AM CDT (10/22) 3:08 PM CDT (10/22)
Length of Visible Light 11h 51m
Length of Day
10h 58m
Last Quarter, 37% of the Moon is Illuminated
Oct 22
Last Quarter
Oct 27
New
Nov 4
First Quarter
Nov 12
Full
Nov 19
Last Quarter

Hourly Weather History & Observations

Time (CDT) Temp. Windchill Dew Point Humidity Pressure Visibility Wind Dir Wind Speed Gust Speed Precip Events Conditions
12:15 AM 52.9 °F - 42.4 °F 68% 29.83 in 10.0 mi SSW 5.8 mph - N/A   Clear
12:35 AM 52.9 °F - 42.1 °F 67% 29.81 in 10.0 mi SSW 5.8 mph - N/A   Clear
12:55 AM 52.0 °F - 41.5 °F 68% 29.81 in 10.0 mi WSW 6.9 mph - N/A   Clear
1:15 AM 53.2 °F - 39.9 °F 61% 29.81 in 10.0 mi WSW 8.1 mph - N/A   Clear
1:35 AM 53.8 °F - 39.0 °F 57% 29.81 in 10.0 mi SW 8.1 mph - N/A   Clear
1:55 AM 52.0 °F - 39.9 °F 63% 29.81 in 10.0 mi SW 5.8 mph - N/A   Clear
2:15 AM 50.4 °F - 40.1 °F 68% 29.81 in 10.0 mi SW 4.6 mph - N/A   Unknown
2:35 AM 50.4 °F - 40.8 °F 70% 29.81 in 10.0 mi SW 6.9 mph - N/A   Clear
2:55 AM 48.6 °F - 40.6 °F 74% 29.81 in 10.0 mi WSW 4.6 mph - N/A   Clear
3:15 AM 49.3 °F - 40.5 °F 72% 29.82 in 10.0 mi SW 3.5 mph - N/A   Clear
3:35 AM 48.6 °F - 40.8 °F 75% 29.82 in 10.0 mi WSW 5.8 mph - N/A   Clear
3:55 AM 48.2 °F - 39.7 °F 73% 29.82 in 10.0 mi WSW 5.8 mph - N/A   Clear
4:15 AM 49.1 °F - 39.0 °F 68% 29.82 in 10.0 mi WSW 5.8 mph - N/A   Clear
4:35 AM 48.7 °F - 38.5 °F 68% 29.83 in 10.0 mi WSW 5.8 mph - N/A   Clear
4:55 AM 47.3 °F - 38.7 °F 72% 29.84 in 10.0 mi WSW 3.5 mph - N/A   Clear
5:15 AM 46.2 °F 43.3 °F 39.2 °F 76% 29.84 in 10.0 mi WSW 5.8 mph - N/A   Clear
5:35 AM 46.8 °F - 40.1 °F 78% 29.84 in 10.0 mi SW 4.6 mph - N/A   Clear
5:55 AM 46.8 °F - 40.1 °F 78% 29.85 in 10.0 mi WSW 6.9 mph - N/A   Clear
6:15 AM 46.9 °F - 39.7 °F 76% 29.86 in 10.0 mi WSW 6.9 mph - N/A   Clear
6:35 AM 46.6 °F - 39.7 °F 77% 29.86 in 10.0 mi WSW 5.8 mph - N/A   Clear
6:55 AM 46.6 °F - 39.4 °F 76% 29.87 in 10.0 mi WSW 4.6 mph - N/A   Clear
7:15 AM 45.5 °F 43.2 °F 39.2 °F 79% 29.87 in 10.0 mi SW 4.6 mph - N/A   Clear
7:35 AM 45.9 °F 42.9 °F 39.6 °F 79% 29.88 in 10.0 mi SW 5.8 mph - N/A   Clear
7:55 AM 47.5 °F - 39.6 °F 74% 29.89 in 10.0 mi WSW 6.9 mph - N/A   Clear
8:15 AM 48.6 °F - 39.7 °F 72% 29.89 in 10.0 mi WSW 5.8 mph - N/A   Clear
8:35 AM 50.0 °F - 40.1 °F 69% 29.90 in 10.0 mi WSW 9.2 mph - N/A   Clear
8:55 AM 51.1 °F - 40.1 °F 66% 29.91 in 10.0 mi WSW 9.2 mph - N/A   Clear
9:15 AM 52.0 °F - 38.7 °F 60% 29.91 in 10.0 mi WSW 10.4 mph 18.4 mph N/A   Clear
9:35 AM 52.9 °F - 38.7 °F 58% 29.92 in 10.0 mi WSW 15.0 mph 21.9 mph N/A   Clear
10:15 AM 54.9 °F - 39.7 °F 57% 29.94 in 10.0 mi WSW 12.7 mph 19.6 mph N/A   Clear
10:35 AM 55.4 °F - 38.1 °F 52% 29.93 in 10.0 mi West 15.0 mph 19.6 mph N/A   Clear
10:55 AM 56.1 °F - 38.5 °F 52% 29.92 in 10.0 mi WSW 12.7 mph 19.6 mph N/A   Clear
11:15 AM 57.2 °F - 38.1 °F 49% 29.93 in 10.0 mi West 15.0 mph 19.6 mph N/A   Clear
11:35 AM 58.1 °F - 37.8 °F 47% 29.94 in 10.0 mi West 15.0 mph 23.0 mph N/A   Clear
11:55 AM 58.8 °F - 37.6 °F 45% 29.94 in 10.0 mi WSW 15.0 mph 23.0 mph N/A   Clear
12:15 PM 59.2 °F - 35.4 °F 41% 29.93 in 10.0 mi WSW 17.3 mph 21.9 mph N/A   Clear
12:35 PM 59.5 °F - 35.2 °F 40% 29.93 in 10.0 mi WSW 17.3 mph 23.0 mph N/A   Clear
12:55 PM 60.6 °F - 35.4 °F 39% 29.93 in 10.0 mi West 20.7 mph 25.3 mph N/A   Clear
1:15 PM 60.6 °F - 34.0 °F 37% 29.92 in 10.0 mi West 15.0 mph 23.0 mph N/A   Clear
1:35 PM 61.2 °F - 33.8 °F 36% 29.91 in 10.0 mi West 18.4 mph - N/A   Clear
1:55 PM 61.7 °F - 32.4 °F 33% 29.91 in 10.0 mi West 18.4 mph 24.2 mph N/A   Clear
2:15 PM 61.9 °F - 31.3 °F 32% 29.91 in 10.0 mi West 17.3 mph 24.2 mph N/A   Clear
2:35 PM 62.6 °F - 29.8 °F 29% 29.91 in 10.0 mi West 16.1 mph 25.3 mph N/A   Clear
2:55 PM 62.8 °F - 26.8 °F 26% 29.91 in 10.0 mi West 20.7 mph 26.5 mph N/A   Clear
3:15 PM 62.6 °F - 25.5 °F 24% 29.92 in 10.0 mi West 15.0 mph 25.3 mph N/A   Clear
3:35 PM 62.8 °F - 22.8 °F 22% 29.92 in 10.0 mi West 19.6 mph 24.2 mph N/A   Clear
3:55 PM 62.8 °F - 23.4 °F 22% 29.92 in 10.0 mi West 18.4 mph 25.3 mph N/A   Clear
4:15 PM 62.2 °F - 20.8 °F 20% 29.93 in 10.0 mi West 15.0 mph 26.5 mph N/A   Clear
4:35 PM 62.4 °F - 22.5 °F 22% 29.93 in 10.0 mi West 16.1 mph 21.9 mph N/A   Clear
4:55 PM 61.7 °F - 21.6 °F 21% 29.93 in 10.0 mi West 16.1 mph 25.3 mph N/A   Clear
5:15 PM 61.2 °F - 21.4 °F 22% 29.94 in 10.0 mi West 11.5 mph 19.6 mph N/A   Clear
5:35 PM 60.3 °F - 20.3 °F 21% 29.94 in 10.0 mi West 11.5 mph - N/A   Clear
5:55 PM 59.2 °F - 17.8 °F 20% 29.95 in 10.0 mi West 12.7 mph 18.4 mph N/A   Clear
6:15 PM 55.6 °F - 19.8 °F 25% 29.96 in 10.0 mi West 8.1 mph - N/A   Clear
6:35 PM 55.4 °F - 18.1 °F 23% 29.96 in 10.0 mi WSW 5.8 mph - N/A   Clear
6:55 PM 54.0 °F - 19.6 °F 26% 29.97 in 10.0 mi West 5.8 mph - N/A   Clear
7:35 PM 49.8 °F - 23.7 °F 36% 29.98 in 10.0 mi WSW 3.5 mph - N/A   Clear
7:55 PM 46.6 °F - 27.1 °F 47% 29.99 in 10.0 mi WSW 3.5 mph - N/A   Clear
8:15 PM 46.6 °F - 27.0 °F 46% 30.00 in 10.0 mi Calm Calm - N/A   Clear
8:35 PM 46.6 °F - 27.9 °F 48% 30.00 in 10.0 mi West 3.5 mph - N/A   Clear
8:55 PM 44.4 °F 42.9 °F 29.7 °F 56% 30.01 in 10.0 mi WNW 3.5 mph - N/A   Clear
9:15 PM 43.0 °F 39.5 °F 31.8 °F 65% 30.02 in 10.0 mi West 5.8 mph - N/A   Clear
9:35 PM 45.3 °F 41.6 °F 30.7 °F 57% 30.03 in 10.0 mi West 6.9 mph - N/A   Clear
9:55 PM 46.6 °F - 29.8 °F 52% 30.03 in 10.0 mi West 6.9 mph - N/A   Clear
10:15 PM 46.6 °F - 28.9 °F 50% 30.04 in 10.0 mi West 4.6 mph - N/A   Scattered Clouds
10:35 PM 45.1 °F 42.8 °F 30.0 °F 55% 30.04 in 10.0 mi WSW 4.6 mph - N/A   Scattered Clouds
10:55 PM 45.7 °F 44.4 °F 29.1 °F 52% 30.04 in 10.0 mi West 3.5 mph - N/A   Clear
11:15 PM 43.5 °F 41.9 °F 30.4 °F 60% 30.04 in 10.0 mi SW 3.5 mph - N/A   Clear
11:35 PM 40.6 °F - 32.2 °F 72% 30.05 in 10.0 mi Calm Calm - N/A   Clear
11:55 PM 42.3 °F - 31.6 °F 66% 30.05 in 10.0 mi Calm Calm - N/A   Clear